Total_Precipitation_Accumulation
1.69 1.74 1.94 2.13 2.20 2.29 2.47 2.42 2.38 2.42 2.54 2.61 2.62 2.60 2.50 2.38 2.51 2.75 2.83 3.06 3.13 3.17 3.15 3.22 3.18 3.32 3.36 3.28 3.45 3.56 3.80 4.00 3.52 2.80 2.88 3.03 2.99 2.77 2.60 2.40 2.28 2.26 2.22
1.62 1.75 1.95 2.09 2.14 2.23 2.30 2.41 2.47 2.48 2.61 2.67 2.69 2.63 2.39 2.36 2.50 2.59 2.72 2.94 3.03 3.12 3.27 3.40 3.12 3.28 3.41 3.35 3.41 3.37 3.50 3.85 3.63 3.33 3.23 3.29 3.25 2.96 2.74 2.48 2.11 1.89 1.98
1.82 1.88 1.88 1.94 1.98 2.08 2.18 2.27 2.40 2.50 2.60 2.68 2.68 2.56 2.46 2.49 2.59 2.66 2.77 2.92 2.97 3.07 3.25 3.20 3.10 3.28 3.15 3.27 3.35 3.24 3.25 3.31 3.45 3.29 3.04 3.12 3.06 2.90 2.75 2.45 2.17 2.14 1.89
1.82 1.85 1.87 1.90 2.00 2.17 2.30 2.38 2.44 2.43 2.46 2.45 2.43 2.50 2.55 2.57 2.61 2.66 2.68 2.72 2.74 2.80 2.81 2.71 2.62 2.66 2.73 2.97 2.94 2.92 3.03 3.16 3.26 3.10 2.94 2.98 2.99 3.04 2.94 2.60 2.45 2.30 2.10
1.88 1.80 1.87 2.06 2.15 2.24 2.26 2.28 2.35 2.35 2.23 2.38 2.40 2.49 2.55 2.49 2.37 2.52 2.54 2.49 2.66 2.56 2.42 2.36 2.34 2.46 2.54 2.65 2.45 2.55 2.80 2.87 2.95 3.02 2.98 3.10 3.09 3.24 3.08 2.80 2.68 2.59 2.33
1.88 1.96 2.02 2.07 2.04 2.13 2.16 2.17 2.22 2.28 2.34 2.41 2.41 2.51 2.55 2.36 2.50 2.57 2.60 2.58 2.62 2.51 2.44 2.35 2.21 2.24 2.29 2.34 2.31 2.34 2.54 2.65 2.80 2.98 2.97 3.02 3.06 3.08 3.12 3.01 2.90 2.73 2.40
1.81 1.90 2.13 2.20 2.09 2.17 2.19 2.23 2.24 2.28 2.44 2.52 2.62 2.69 2.61 2.74 2.78 2.56 2.58 2.53 2.56 2.55 2.53 2.49 2.16 1.96 2.21 2.15 2.27 2.21 2.13 2.21 2.33 2.50 2.55 2.63 2.88 3.03 3.20 3.13 3.19 3.06 2.68
1.90 2.07 2.40 2.55 2.37 2.36 2.39 2.42 2.48 2.61 2.65 2.73 2.77 2.70 2.68 2.79 2.86 2.48 2.40 2.27 2.30 2.38 2.38 2.43 2.45 2.36 2.35 2.39 2.40 2.30 2.12 2.07 2.21 2.19 2.15 2.37 2.77 3.14 3.26 3.24 3.36 3.25 2.84
2.14 2.31 2.59 2.85 2.95 2.88 2.69 2.77 2.86 2.87 2.83 2.91 3.00 3.00 2.88 2.92 2.84 2.41 2.27 2.08 2.13 2.17 2.22 2.21 2.24 2.16 2.25 2.20 2.13 2.06 1.98 1.89 1.89 1.92 1.89 2.02 2.34 2.79 3.05 3.12 3.27 3.24 2.94
2.31 2.36 2.59 2.86 2.99 2.95 2.92 3.10 3.20 3.12 3.04 3.12 3.02 2.91 2.75 2.71 2.73 2.36 2.14 1.96 2.03 2.09 2.18 2.14 2.14 2.03 2.03 1.94 1.83 1.82 1.72 1.71 1.86 1.89 1.83 1.79 1.91 2.25 2.66 2.67 2.80 3.00 2.75
2.49 2.49 2.63 2.88 3.17 3.12 3.20 3.30 3.39 3.40 3.45 3.46 3.35 3.21 2.97 2.83 2.82 2.46 2.21 1.96 1.96 2.00 1.90 1.86 1.89 1.92 1.73 1.70 1.68 1.64 1.69 1.75 1.89 1.91 1.88 1.88 1.96 2.07 2.21 2.32 2.48 2.62 2.61
2.60 2.59 2.67 2.95 3.08 3.12 3.29 3.37 3.50 3.66 3.71 3.66 3.58 3.25 3.08 2.93 2.64 2.34 2.15 2.09 2.12 2.12 2.01 1.92 1.94 1.88 1.68 1.63 1.46 1.42 1.57 1.57 1.54 1.66 1.69 1.69 1.77 1.85 1.96 2.18 2.40 2.54 2.59
2.38 2.40 2.53 2.72 2.85 3.02 3.19 3.18 3.30 3.47 3.41 3.35 3.22 3.00 2.98 3.07 2.85 2.40 2.08 2.00 2.07 2.10 2.16 2.24 2.06 1.90 1.77 1.67 1.64 1.58 1.47 1.38 1.44 1.51 1.53 1.49 1.59 1.76 1.99 2.24 2.46 2.73 2.70
2.26 2.25 2.40 2.66 2.81 2.92 3.05 3.04 3.10 3.10 3.11 3.10 3.04 2.91 2.87 3.00 2.95 2.62 2.28 2.06 1.98 1.92 1.93 1.95 1.85 1.83 1.74 1.60 1.58 1.50 1.36 1.36 1.42 1.41 1.48 1.56 1.69 1.91 2.05 2.07 2.20 2.47 2.66
2.37 2.38 2.54 2.67 2.74 2.89 2.95 2.98 3.00 2.94 2.91 2.92 2.85 2.74 2.70 2.77 2.83 2.66 2.35 2.14 2.05 2.00 1.95 1.89 1.86 1.91 1.82 1.71 1.63 1.61 1.65 1.66 1.59 1.51 1.58 1.69 1.75 1.85 2.00 2.06 2.15 2.22 2.25
2.56 2.55 2.54 2.48 2.56 2.55 2.56 2.53 2.53 2.48 2.49 2.46 2.42 2.33 2.26 2.42 2.44 2.13 1.96 1.97 1.99 1.98 1.85 1.78 1.86 1.93 1.91 1.87 1.81 1.74 1.73 1.73 1.68 1.66 1.68 1.76 1.85 1.94 2.03 2.15 2.29 2.31 2.18
2.67 2.55 2.45 2.34 2.32 2.34 2.40 2.43 2.43 2.35 2.29 2.20 2.13 1.98 1.84 2.04 2.08 1.93 1.83 1.81 1.77 1.75 1.65 1.65 1.72 1.84 1.94 1.88 1.79 1.72 1.68 1.70 1.79 1.79 1.79 1.85 1.96 2.06 2.14 2.19 2.34 2.49 2.42
2.69 2.57 2.37 2.24 2.20 2.18 2.31 2.36 2.33 2.30 2.23 2.01 1.88 1.82 1.68 1.75 1.86 1.82 1.76 1.62 1.51 1.48 1.45 1.59 1.69 1.78 1.88 1.85 1.76 1.77 1.79 1.83 1.83 1.84 1.91 2.00 2.08 2.14 2.18 2.21 2.30 2.45 2.47
2.55 2.47 2.35 2.31 2.30 2.19 2.15 2.20 2.19 2.16 2.18 2.09 1.90 1.86 1.87 1.83 1.89 1.85 1.68 1.46 1.49 1.51 1.50 1.54 1.60 1.68 1.74 1.77 1.80 1.85 1.91 1.96 1.93 1.98 2.08 2.19 2.21 2.28 2.21 2.24 2.39 2.60 2.61
2.21 2.25 2.23 2.28 2.28 2.22 2.22 2.23 2.27 2.31 2.33 2.21 2.04 1.93 1.84 1.81 1.78 1.78 1.65 1.54 1.54 1.52 1.54 1.60 1.67 1.72 1.78 1.82 1.94 2.05 2.08 2.14 2.18 2.22 2.29 2.34 2.28 2.29 2.29 2.31 2.40 2.47 2.52
1.97 1.94 1.93 1.89 1.94 2.06 2.13 2.21 2.31 2.37 2.39 2.28 2.05 1.89 1.80 1.63 1.63 1.60 1.62 1.68 1.68 1.70 1.75 1.78 1.84 1.91 1.96 2.03 2.12 2.22 2.29 2.30 2.35 2.33 2.35 2.46 2.44 2.44 2.47 2.40 2.36 2.47 2.51
2.04 1.85 1.69 1.66 1.71 1.86 2.08 2.21 2.28 2.23 2.17 2.11 2.00 1.93 1.97 1.70 1.56 1.55 1.59 1.61 1.64 1.69 1.73 1.76 1.77 1.83 1.91 2.00 2.07 2.14 2.21 2.25 2.28 2.31 2.30 2.32 2.32 2.30 2.37 2.38 2.34 2.44 2.59
1.88 1.67 1.49 1.48 1.56 1.74 1.97 2.28 2.30 2.07 1.94 1.90 1.94 1.94 1.91 1.84 1.74 1.67 1.67 1.64 1.60 1.56 1.58 1.66 1.70 1.75 1.83 1.87 1.89 1.97 2.01 2.04 2.07 2.15 2.23 2.21 2.23 2.25 2.29 2.35 2.36 2.43 2.55
1.71 1.57 1.45 1.44 1.50 1.64 1.90 2.20 2.14 1.97 1.86 1.86 1.90 1.92 1.90 1.88 1.80 1.75 1.74 1.73 1.66 1.59 1.56 1.62 1.66 1.68 1.73 1.80 1.78 1.73 1.72 1.73 1.76 1.91 2.09 2.21 2.25 2.30 2.28 2.31 2.37 2.38 2.50
1.58 1.54 1.49 1.52 1.58 1.74 2.01 2.19 2.10 1.97 1.91 1.89 1.90 1.97 1.97 1.92 1.87 1.87 1.89 1.93 1.89 1.86 1.77 1.65 1.61 1.57 1.54 1.60 1.67 1.67 1.75 1.66 1.59 1.63 1.74 1.94 2.00 2.09 2.13 2.19 2.35 2.43 2.50
1.54 1.55 1.55 1.60 1.69 1.83 1.98 2.04 2.01 1.96 1.98 1.95 1.93 1.96 2.05 2.08 2.05 2.06 2.08 2.03 1.95 1.87 1.74 1.61 1.54 1.53 1.51 1.46 1.41 1.43 1.46 1.43 1.42 1.50 1.50 1.56 1.69 1.81 1.97 2.08 2.16 2.28 2.34